星链-2464 (STARLINK-2464 )

导读 | 星芒AI

STARLINK-2464 是 SpaceX Starlink 卫星互联网项目中的一颗低轨通信卫星。该卫星属于 Starlink 任务的第 24 批部署,旨在为全球用户提供高速、低延迟的互联网服务。它运行在约 550 公里的近地轨道,采用先进的推进和通信技术,支持宽带数据传输。作为 Starlink 卫星群的一部分,STARLINK-2464 有助于扩大网络覆盖范围,特别是在偏远和网络基础设施薄弱的地区。

基本信息
目录编号:
48123
目录名称:
STARLINK-2464
国际标识:
2021-027AH
轨道中心:
EARTH
卫星名称:
星链-2464
卫星全名:
星链-2464 (STARLINK-2464 )
卫星状态:
在轨 (已飞行1667 天)
发射日期:
2021-04-07 UTC
国别 :
美国 (US)
星等 :
--
轨道信息
数据来源 国际轨道数据 AOE轨道数据
星历时间 2025-10-30T06:44:35+0800
14小时前
查看轨道信息
2025-10-29T08:00:00+0800
1天前
查看轨道信息
半长轴 6925.324km 6925.412km
偏心率 0.0001613 0.0001388
轨道倾角 53.055° 53.055°
近地点辐角 83.349° 94.801°
升交点赤经 18.542° 22.800°
平近点角 276.768° 163.438°
近地点 546.071km 546.315km
远地点 548.307km 548.239km
周期 95.592分钟 95.593分钟
每日圈数 15.064083 15.063794
详细信息
固有亮度:
5
最大亮度:
2.5
卫星平台:
Starlink V1.0
覆盖范围:
全球
运营商:
太空探索技术公司
运营商所在国:
美国
制造商(研发单位):
太空探索技术公司
制造商所在国:
美国
使用方式:
暂无
卫星简介
星链(Starlink)计划是由太空探索技术公司(SpaceX)提出的一个巨型低轨卫星互联网星座项目,计划在2019年至2024年间在太空搭建由约1.2万颗卫星组成的“星链”网络,其中1584颗将部署在地球上空550千米处的近地轨道,并从2020年开始工作。该卫星仍在工作。
2D轨道图
3D轨道图
轨道高度分析图
轨道倾角分析图
轨道综合分析图
查看轨道综合分析图